Weather in Plakhino

Russia / Ryazan Oblast     54°27′40″N   39°20′20″E
temp.,
°C
wind,
m/s
gust,
m/s
humid.,
%
clouds,
%
prec.,
mm/h
press.,
hPa
HPBL,
m
21 january, fri
fri2100:00−9s71592100 0.0 1007434
03:00−8s71494100 0.6 1006446
06:00−7s71495100 0.8 1004470
09:00−7sse71495100 2.0 1003555
12:00−7sse71494100 0.9 1002635
15:00−6sse71395100 2.1 1000684
18:00−5s61296100 0.9 1000515
21:00−4ssw5109389 1.8 1000506
22 january, sat
sat2200:00−10sse5129544 0.0 1002217
03:00−8sse6149396 0.1 1002440
06:00−6sse61393100 0.2 1003470
09:00−7sse61294100 0.6 1005395
12:00−7sse5109494 0.1 1008327
15:00−7sse489583 0.2 1009286
18:00−11se379881 0.0 1012103
21:00−10s3796100 0.1 1014156
23 january, sun
sun2300:00−15sse2299100 0.0 101724
03:00−10se2396100 0.1 101853
06:00−10se2496100 0.1 102187
09:00−16sse229962 0.1 10249
12:00−11e009561 0.0 102745
15:00−11e229749 0.0 102918
18:00−16n2210076 0.0 103110
21:00−18ne22100100 0.0 103310
24 january, mon
mon2400:00−17nne35100100 0.0 103552
03:00−18ne36100100 0.1 103572
06:00−18nne37100100 0.0 103692
09:00−16nne410100100 0.1 1036143
12:00−10ne4996100 0.1 1035194
15:00−7ne379674 0.1 1034238
18:00−11ene379991 0.0 103490
21:00−16e229965 0.0 103413
25 january, tue
tue2500:00−18ese229959 0.0 10349
03:00−19se2210075 0.0 103213
06:00−19sse2210071 0.0 103134
09:00−19s229920 0.0 102927
12:00−12s36947 0.0 1027140
15:00−11sse369536 0.0 1025153
18:00−15s369757 0.0 102472
21:00−15s489870 0.0 1023107